[[{"header":{"parameterUnit":"m.s-1","parameterCategory":1,"la1":30.2991,"la2":30.254,"lo1":-89.0895,"lo2":-89.0444,"dy":0.0017,"dx":0.0017,"nx":28,"ny":28,"refTime":"2023-11-21T03:00:00:Z","depth":0,"parameterNumber":2,"parameterNumberName":"U-component_of_WINDS"},"data":[0,0,0,0,0,0,0,0,0,0,0,0,0,0,0,0,0,0,0,0,0,0,0,0,0,0,0,0,0,0,0,0,0,0,0,0,0,0,0,0,0,0,0,0,0,0,0,0,0,0,0,0,0,0,0,0,0,0,2.7588,2.7588,0,2.7579,2.7579,2.7579,2.7531,2.753,2.7529,2.7527,2.7518,2.7519,2.752,0,0,0,0,0,0,0,0,0,0,0,0,0,2.7563,2.7564,2.7588,2.7588,2.7588,2.7579,2.7579,2.7579,2.7531,2.753,2.7528,2.7527,2.7518,2.7519,2.752,0,0,0,0,0,0,0,0,0,0,0,0,0,2.7566,2.7564,2.7588,2.7563,2.756,2.7579,2.7579,2.7579,2.7531,2.753,2.7528,2.7526,2.7518,2.7519,2.752,2.7563,0,0,2.7524,2.7525,0,0,0,0,0,0,0,0,2.7566,2.7567,2.7566,2.7564,2.7562,2.7554,2.7567,2.7574,2.7532,2.7542,2.7527,2.7525,2.7532,2.7532,2.7534,2.7562,2.7562,2.7524,2.7525,2.7525,2.7526,0,0,0,0,0,0,0,2.7566,2.7567,2.7584,2.7566,2.7564,2.7552,2.755,2.7568,2.7547,2.7541,2.7538,2.7537,2.753,2.7533,2.7533,2.7562,2.7524,2.7525,2.7526,2.7527,2.7626,2.7628,0,0,0,0,0,0,2.7569,2.7567,2.7585,2.7584,2.756,2.7554,2.7552,2.7559,2.7547,2.7543,2.7539,2.7535,2.7532,2.7532,2.7533,2.7582,2.7525,2.7527,2.7527,2.7624,2.7627,2.7629,0,0,0,0,0,0,2.7569,2.7571,2.7585,2.7575,2.7576,2.7556,2.7564,2.7559,2.7562,2.7545,2.7541,2.7546,2.753,2.7531,2.7556,2.7581,2.7527,2.7528,2.7622,2.7625,2.7628,2.7682,0,0,0,0,0,0,2.7568,2.7571,2.7587,2.7575,2.7576,2.7608,2.7565,2.756,2.7564,2.7559,2.755,2.7547,2.7529,2.7554,2.7557,2.7582,2.7529,2.762,2.7623,2.7627,2.7677,2.7686,2.7693,0,0,0,0,0,2.7567,2.7602,2.7588,2.759,2.7595,2.761,2.761,2.7589,2.7566,2.7582,2.7572,2.7547,2.7579,2.7557,2.756,2.7586,2.7618,2.7622,2.7626,2.7674,2.7684,2.7693,0,0,0,0,0,0,2.7616,2.76,2.7584,2.7616,2.7615,2.7601,2.762,2.7601,2.7605,2.7601,2.7574,2.7573,2.7602,2.7596,2.7573,2.7627,2.7594,2.7599,2.7629,2.7639,2.7647,2.7647,2.753,0,0,0,0,0,2.763,2.7643,2.7629,2.7658,2.7658,2.764,2.7645,2.7629,2.7627,2.7626,2.7617,2.7616,2.7625,2.7632,2.764,2.7677,2.7674,2.7696,2.7704,2.7711,2.7715,2.7735,2.7745,2.7643,2.7643,2.7642,0,0,2.766,2.7653,2.7663,2.7668,2.7665,2.7679,2.764,2.7656,2.7666,2.7628,2.7651,2.7645,2.7642,2.7674,2.7687,2.767,2.7743,2.7716,2.7721,2.7722,2.7741,2.775,2.7759,2.7645,2.7645,2.7644,0,0,2.7721,2.7717,2.7742,2.7741,2.7737,2.7725,2.7731,2.7722,2.7716,2.7739,2.7711,2.7724,2.774,2.774,2.7741,2.7805,2.7783,2.7809,2.7849,2.7869,2.7877,2.7884,2.7907,2.7916,2.7813,2.7813,2.7814,0,2.7759,2.7779,2.7757,2.7776,2.7779,2.7747,2.7772,2.7771,2.7771,2.7774,2.7755,2.7777,2.7772,2.7804,2.7819,2.7822,2.7828,2.7809,2.7878,2.7885,2.7891,2.7913,2.7921,2.7817,2.7816,2.7816,2.7816,0,2.7825,2.784,2.786,2.7861,2.7867,2.7889,2.7871,2.788,2.7864,2.7854,2.7879,2.7873,2.7879,2.7886,2.787,2.7915,2.7905,2.7883,2.7849,2.7904,2.7924,2.7932,2.7821,2.782,2.7819,2.7818,0,0,2.7914,2.7905,2.7913,2.7914,2.7909,2.792,2.7941,2.7948,2.7956,2.7957,2.7974,2.7991,2.7971,2.7973,2.7957,2.7975,2.8027,2.795,2.795,2.7965,2.8076,2.8093,2.8103,2.8012,2.8014,2.8015,2.8077,0,2.7973,2.8009,2.7991,2.8028,2.8042,2.8013,2.8031,2.803,2.8022,2.8033,2.8024,2.8036,2.8008,2.801,2.8026,2.8017,2.8049,2.8012,2.8028,2.8029,2.8029,2.8113,2.813,2.8188,2.8084,2.8086,2.8087,0,2.8046,2.8052,2.8091,2.8085,2.809,2.8107,2.8113,2.8123,2.8123,2.8115,2.8119,2.81,2.8121,2.8088,2.8117,2.8092,2.8098,2.8095,2.8097,2.8097,2.806,2.8115,2.8207,2.8215,2.8099,2.8098,2.8097,0,2.8107,2.8125,2.8151,2.8152,2.8146,2.8159,2.8157,2.8154,2.816,2.8166,2.8169,2.8177,2.8181,2.8187,2.8171,2.8149,2.8202,2.8168,2.8197,2.8197,2.8208,2.8207,2.8301,2.8213,2.8213,2.8213,2.8213,0,2.8175,2.82,2.8179,2.8194,2.8222,2.8202,2.823,2.8225,2.8223,2.8238,2.8213,2.8228,2.8206,2.8218,2.8205,2.8231,2.8233,2.8228,2.8224,2.823,2.8231,2.8233,2.8228,2.8215,2.8215,2.8214,2.8214,0,2.8247,2.8234,2.826,2.8253,2.8252,2.8273,2.8267,2.8281,2.8272,2.8291,2.8295,2.8281,2.8294,2.8279,2.8291,2.8282,2.8317,2.8308,2.8318,2.8315,2.8344,2.8342,2.8442,2.8455,2.8359,2.836,2.8361,0,2.829,2.8309,2.8305,2.8313,2.8313,2.8327,2.8333,2.8315,2.8322,2.8324,2.8339,2.835,2.8358,2.8381,2.8372,2.8382,2.8372,2.8407,2.8373,2.8378,2.8372,2.8371,2.8373,2.8413,2.8414,2.8415,2.8416,0,2.8369,2.8362,2.8372,2.8381,2.839,2.8396,2.8399,2.8408,2.8389,2.8399,2.8413,2.8419,2.8432,2.8444,2.8451,2.8449,2.843,2.8427,2.8434,2.8439,2.8444,2.8442,2.8336,2.8424,2.8423,2.8423,2.8422,2.8422,2.8428,2.8444,2.8443,2.8456,2.8458,2.8462,2.8476,2.847,2.8481,2.8491,2.848,2.8497,2.8497,2.8505,2.8505,2.8519,2.8504,2.8514,2.8516,2.8519,2.8524,2.8443,2.852,2.852,2.8519,2.8519,2.8519,0,2.8504,2.8504,2.8516,2.8523,2.8533,2.8515,2.8519,2.8529,2.8545,2.8547,2.8556,2.8573,2.8585,2.8577,2.8588,2.86,2.8591,2.8603,2.8602,2.8602,2.8536,2.8529,2.861,2.861,2.861,2.861,2.861,2.861,2.8546,2.8572,2.8566,2.8593,2.8592,2.8609,2.8613,2.8618,2.8619,2.8639,2.8649,2.8645,2.8643,2.8654,2.8664,2.8662,2.8666,2.8682,2.8676,2.8615,2.8606,2.8597,2.8591,2.8683,2.8683,2.874,2.8741,2.8741]},{"header":{"parameterUnit":"m.s-1","parameterCategory":1,"la1":30.2991,"la2":30.254,"lo1":-89.0895,"lo2":-89.0444,"dy":0.0017,"dx":0.0017,"nx":28,"ny":28,"refTime":"2023-11-21T03:00:00:Z","depth":0,"parameterNumber":3,"parameterNumberName":"V-component_of_WINDS"},"data":[0,0,0,0,0,0,0,0,0,0,0,0,0,0,0,0,0,0,0,0,0,0,0,0,0,0,0,0,0,0,0,0,0,0,0,0,0,0,0,0,0,0,0,0,0,0,0,0,0,0,0,0,0,0,0,0,0,0,-6.9862,-6.9863,0,-6.9998,-7.0,-7.0001,-6.9938,-6.9935,-6.9931,-6.9928,-7.0065,-7.0071,-7.0078,0,0,0,0,0,0,0,0,0,0,0,0,0,-6.9543,-6.955,-6.9861,-6.9863,-6.9865,-6.9998,-7.0,-7.0002,-6.9939,-6.9935,-6.9931,-6.9927,-7.0062,-7.007,-7.0078,0,0,0,0,0,0,0,0,0,0,0,0,0,-6.9681,-6.9552,-6.9861,-6.985,-6.985,-6.9998,-7.0,-7.0002,-6.994,-6.9935,-6.9929,-6.9925,-7.006,-7.007,-7.008,-7.0245,0,0,-7.0111,-7.0115,0,0,0,0,0,0,0,0,-6.9673,-6.9693,-6.985,-6.9851,-6.9851,-6.9946,-6.9938,-7.0084,-6.9941,-6.9906,-6.9928,-6.9922,-7.0029,-7.0041,-7.0078,-7.0252,-7.0258,-7.0112,-7.0118,-7.0122,-7.0125,0,0,0,0,0,0,0,-6.9664,-6.9686,-6.9915,-6.9852,-6.9853,-6.9837,-6.9851,-6.9965,-6.9994,-6.9908,-6.9904,-6.9921,-7.0028,-7.0068,-7.0081,-7.026,-7.0111,-7.0121,-7.0127,-7.0131,-7.0577,-7.0582,0,0,0,0,0,0,-6.9655,-6.9679,-6.9911,-6.9919,-6.9748,-6.9847,-6.9862,-6.9921,-6.9993,-6.9999,-6.9926,-6.9918,-7.0054,-7.0069,-7.0085,-7.0285,-7.0122,-7.0132,-7.0138,-7.0571,-7.0578,-7.0584,0,0,0,0,0,0,-6.9648,-6.9676,-6.9905,-6.9798,-6.9826,-6.9858,-6.9924,-6.9926,-6.9966,-7.0006,-7.001,-6.9961,-7.005,-7.0071,-7.0207,-7.0289,-7.0136,-7.0146,-7.0564,-7.0573,-7.0581,-7.0685,0,0,0,0,0,0,-6.9639,-6.9674,-6.9738,-6.98,-6.9832,-7.0025,-6.9929,-6.9933,-6.9984,-6.9976,-7.0041,-7.0046,-7.0048,-7.0192,-7.0217,-7.03,-7.0154,-7.0557,-7.0568,-7.0578,-7.0674,-7.0696,-7.0714,0,0,0,0,0,-6.9628,-6.9761,-6.9742,-6.977,-6.9913,-7.003,-7.0048,-7.0048,-6.9991,-7.0055,-7.0081,-7.0044,-7.0276,-7.0206,-7.0234,-7.0321,-7.0552,-7.0565,-7.0578,-7.0665,-7.0692,-7.0714,0,0,0,0,0,0,-6.9706,-6.9769,-6.9748,-6.9905,-6.9963,-7.0019,-7.01,-7.0076,-7.0151,-7.0139,-7.0134,-7.015,-7.029,-7.0319,-7.024,-7.0486,-7.0405,-7.0424,-7.0462,-7.0488,-7.0507,-7.0497,-7.0162,0,0,0,0,0,-6.9742,-6.9833,-6.9882,-7.0015,-7.0046,-7.0069,-7.012,-7.0115,-7.0174,-7.0198,-7.0233,-7.0292,-7.0377,-7.0434,-7.0515,-7.0678,-7.0691,-7.0752,-7.0772,-7.0789,-7.0805,-7.0894,-7.0922,-7.0626,-7.0626,-7.0626,0,0,-6.9815,-6.9861,-6.9918,-7.0032,-7.0077,-7.0171,-7.0089,-7.0192,-7.0261,-7.0213,-7.0344,-7.0372,-7.0437,-7.0587,-7.0655,-7.0615,-7.089,-7.0805,-7.0818,-7.0825,-7.091,-7.0938,-7.0963,-7.0635,-7.0634,-7.0632,0,0,-6.9998,-7.0042,-7.0158,-7.0205,-7.0274,-7.0289,-7.0317,-7.0378,-7.0395,-7.0527,-7.0493,-7.0575,-7.0722,-7.077,-7.0814,-7.1017,-7.0986,-7.1043,-7.1148,-7.1235,-7.1259,-7.1279,-7.1352,-7.1378,-7.106,-7.106,-7.106,0,-7.0081,-7.0222,-7.0221,-7.0327,-7.0378,-7.0341,-7.0458,-7.0503,-7.0595,-7.0631,-7.0586,-7.0771,-7.0812,-7.0974,-7.1023,-7.106,-7.1092,-7.1036,-7.1256,-7.1276,-7.1295,-7.1365,-7.1392,-7.1066,-7.1066,-7.1065,-7.1064,0,-7.0321,-7.042,-7.0505,-7.0597,-7.0657,-7.0769,-7.0784,-7.0845,-7.0835,-7.0854,-7.0989,-7.1037,-7.1128,-7.1165,-7.1156,-7.1326,-7.13,-7.1255,-7.1174,-7.133,-7.1395,-7.1422,-7.1076,-7.1073,-7.1072,-7.107,0,0,-7.0555,-7.0646,-7.0678,-7.0719,-7.0793,-7.0869,-7.0979,-7.1069,-7.1122,-7.1187,-7.1278,-7.1405,-7.1365,-7.1415,-7.1411,-7.1487,-7.1646,-7.1433,-7.1435,-7.1471,-7.1837,-7.187,-7.1901,-7.1626,-7.1631,-7.1635,-7.1831,0,-7.0744,-7.0938,-7.094,-7.1118,-7.1209,-7.1175,-7.1271,-7.1327,-7.1348,-7.1427,-7.145,-7.154,-7.148,-7.151,-7.1584,-7.1611,-7.1719,-7.1596,-7.1711,-7.1715,-7.1696,-7.1935,-7.197,-7.2153,-7.1857,-7.1861,-7.1864,0,-7.099,-7.1064,-7.1252,-7.1314,-7.1352,-7.1438,-7.1522,-7.1599,-7.1661,-7.1671,-7.1728,-7.1712,-7.1824,-7.1739,-7.1892,-7.1809,-7.1856,-7.1876,-7.1883,-7.1894,-7.1799,-7.1952,-7.2211,-7.2239,-7.1904,-7.1901,-7.1898,0,-7.1143,-7.129,-7.1421,-7.1458,-7.1533,-7.1595,-7.1629,-7.1686,-7.1741,-7.1814,-7.1849,-7.1933,-7.1979,-7.2045,-7.2052,-7.199,-7.2207,-7.2122,-7.2218,-7.2218,-7.2264,-7.2261,-7.2535,-7.2295,-7.2294,-7.2294,-7.2293,0,-7.1353,-7.1469,-7.1491,-7.1572,-7.1701,-7.1703,-7.183,-7.1859,-7.1911,-7.1996,-7.1972,-7.2052,-7.2057,-7.214,-7.2146,-7.2273,-7.2293,-7.2304,-7.2305,-7.2307,-7.2306,-7.2337,-7.2325,-7.2301,-7.2299,-7.2298,-7.2297,0,-7.1545,-7.1565,-7.1706,-7.1767,-7.1785,-7.1878,-7.1929,-7.2006,-7.2025,-7.2134,-7.2159,-7.2189,-7.2285,-7.2299,-7.2411,-7.2416,-7.2567,-7.2554,-7.2547,-7.2545,-7.264,-7.2631,-7.2944,-7.2985,-7.2717,-7.272,-7.2722,0,-7.1678,-7.1767,-7.1838,-7.1895,-7.1933,-7.2023,-7.2079,-7.2085,-7.2144,-7.2223,-7.229,-7.2384,-7.246,-7.2614,-7.2645,-7.2731,-7.272,-7.2824,-7.2733,-7.2732,-7.2722,-7.2717,-7.2726,-7.2841,-7.2844,-7.2846,-7.2848,0,-7.1912,-7.1918,-7.2001,-7.2088,-7.2156,-7.2224,-7.2288,-7.2335,-7.2349,-7.2417,-7.2516,-7.2574,-7.269,-7.2783,-7.2869,-7.2903,-7.2879,-7.2877,-7.2904,-7.2907,-7.2899,-7.2905,-7.2595,-7.287,-7.2868,-7.2866,-7.2865,-7.2864,-7.208,-7.2157,-7.222,-7.2313,-7.2363,-7.2424,-7.25,-7.2529,-7.2612,-7.2708,-7.2705,-7.2814,-7.2875,-7.2987,-7.3027,-7.3112,-7.3078,-7.3116,-7.3126,-7.3136,-7.3145,-7.2886,-7.3127,-7.3127,-7.3126,-7.3126,-7.3125,0,-7.2313,-7.2352,-7.2438,-7.253,-7.2603,-7.2575,-7.2645,-7.2708,-7.2805,-7.2864,-7.2939,-7.3053,-7.3144,-7.3183,-7.3273,-7.3333,-7.3324,-7.3356,-7.3352,-7.336,-7.317,-7.3139,-7.3362,-7.3362,-7.3362,-7.3362,-7.3362,-7.3362,-7.2443,-7.2574,-7.2587,-7.2742,-7.278,-7.2888,-7.293,-7.2986,-7.3034,-7.3163,-7.3239,-7.3264,-7.3316,-7.3409,-7.3491,-7.35,-7.3534,-7.3571,-7.3575,-7.3397,-7.3373,-7.335,-7.3321,-7.3579,-7.3579,-7.3758,-7.376,-7.3761]}]]